Location: Unspecified
(47.9110°N, 14.3980°E)
Time: 05:32:40
(UTC+00:00)

Cosmos 1763 Rocket - Pass Details

Date: 06 August 2020
Orbit: 732 x 780 km, 74.0° (Epoch: 19 September)

Event Time Altitude Azimuth Distance (km) Brightness Sun altitude
Rises 22:02:34 0° 332° (NNW) 3,272 8.1 -24.1°
Reaches altitude 10° 22:05:01 10° 327° (NNW) 2,343 7.0 -24.2°
Maximum altitude 22:10:06 47° 255° (WSW) 1,034 4.1 -24.4°
Enters shadow 22:10:49 44° 232° (SW) 1,074 4.0 -24.5°
